Notices

What's New in latest Release from April 7th, 2021:

- Updated Glossary, including Speed of Maximum Gust, and Total Hourly Precipitation

- Updated national and regional climate services offices contacts and prices information

- Addition of station inventory lists for 1981-2010, 1971-2000, and 1961-1990 Normals.

If you haven't already, please take our survey and provide feedback about our website: https://eccc.sondage-survey.ca/f/LanguageSelection.aspx?s=442ca660-fcf1-47c0-95a9-59707d6fd709

Hourly Data Report for November 01, 2020

CARBERRY CS
MANITOBA
Current Station Operator: ECCC - MSC

49°54'20.900" N
99°21'26.800" W
383.50 m
5010547
71170
WZE

Download Data

Hourly Data (November 2020)
Hourly Data Report for November 1, 2020
TIME
LST
Temp Definition
°C
Dew Point Definition
°C
Rel Hum Definition
%
Precip. Amount Definition
mm

Wind Dir Definition
10's deg

Wind Spd Definition
km/h
Visibility Definition
km
Stn Press Definition
kPa
Hmdx Definition


Wind Chill Definition


Weather Definition


00:00 -5.8 -9.8 73 0.0 33 10   98.02   -10 LegendNANA
01:00 -7.4 -10.6 78 0.0 31 8   98.08   -11 LegendNANA
02:00 -8.5 -10.6 85 0.0 28 6   98.12   -12 LegendNANA
03:00 -9.9 -11.7 87 0.0 26 6   98.13   -13 LegendNANA
04:00 -10.9 -13.2 83 0.0 25 5   98.09   -14 LegendNANA
05:00 -11.9 -14.3 82 0.0 25 6   98.14   -16 LegendNANA
06:00 -11.0 -12.6 88 0.0 24 8   98.18   -16 LegendNANA
07:00 -11.1 -12.4 90 0.0 21 7   98.13   -15 LegendNANA
08:00 -10.3 -12.0 87 0.0 21 8   98.12   -15 LegendNANA
09:00 -7.5 -9.9 83 0.0 21 11   98.12   -13 LegendNANA
10:00 -5.3 -8.9 76 0.0 21 13   98.07   -10 LegendNANA
11:00 -3.1 -8.0 69 0.0 21 16   98.02   -8 LegendNANA
12:00 -0.2 -6.7 62 0.0 22 20   97.90   -5 LegendNANA
13:00 1.9 -5.8 57 0.0 21 18   97.78     LegendNANA
14:00 4.8 -5.8 46 0.0 21 21   97.64     LegendNANA
15:00 6.5 -5.5 42 0.0 22 20   97.51     LegendNANA
16:00 6.5 -6.5 39 0.0 20 20   97.36     LegendNANA
17:00 3.7 -6.5 47 0.0 20 10   97.36     LegendNANA
18:00 1.9 -5.7 57 0.0 17 14   97.28     LegendNANA
19:00 2.0 -5.5 58 0.0 18 17   97.23     LegendNANA
20:00 3.3 -5.2 54 0.0 20 18   97.17     LegendNANA
21:00 1.8 -5.0 61 0.0 21 12   97.08     LegendNANA
22:00 2.5 -4.1 62 0.0 24 14   97.05     LegendNANA
23:00 2.9 -3.5 63 0.0 25 16   97.00     LegendNANA

Notes on Data Quality.

Legend

  • E = Estimated
  • M = Missing
  • NA = Not Available*
  • [empty] = Indicates an unobserved value
Date modified: